#timestamp,LO_Frequency,Hit,StdDev 
1507737615.8,286046996.5,N
1507737635.7,286046999.3,N
1507737655.5,286046997.0,N
1507737675.3,286046996.9,N
1507737695.2,286047000.0,N
1507737715.0,286047000.1,N
1507737715.9,286047000.1,N
1507737735.7,286046997.2,N
1507737755.6,286046996.4,N
1507737775.4,286046994.5,N
1507737795.2,286046993.9,N
1507737815.1,286046995.9,N
1507737816.0,286046995.9,N
1507737835.8,286046997.5,N
1507737855.6,286046996.9,N
1507737875.5,286046992.3,N
1507737895.3,286046988.7,Y
1507737915.1,286046986.4,P
1507737935.9,286046985.9,N
1507737955.7,286046989.7,N
1507737975.5,286046985.3,N
1507737995.4,286046985.8,N
1507738015.2,286046986.1,N
1507738035.0,286046984.9,Y
1507738035.9,286046984.9,P
1507738055.8,286046997.4,N
1507738075.6,286047001.2,N
1507738095.4,286046998.9,N
1507738115.3,286046997.3,N
1507738135.1,286046995.0,N
1507738136.0,286046995.0,N
1507738155.8,286046996.1,N
1507738175.7,286046998.9,N
1507738195.5,286046997.2,N
1507738215.3,286046999.1,N
1507738235.1,286046995.9,N
1507738255.9,286046994.0,N
1507738275.7,286046998.7,N
1507738295.5,286046997.4,N
1507738315.4,286047001.1,N
1507738335.2,286046999.4,N
1507738355.0,286047001.1,N
1507738355.9,286047001.1,N
1507738375.8,286047000.7,N
1507738395.6,286046998.8,N
1507738415.4,286046997.7,N
1507738435.3,286046994.7,N
1507738455.1,286046991.7,N
1507738456.0,286046991.7,N
1507738475.8,286046992.3,N
1507738495.7,286046993.8,N
1507738515.5,286046994.9,N
1507738535.3,286046995.2,N
1507738555.2,286046994.2,N
1507738575.9,286046997.7,N
1507738595.7,286046992.2,N
1507738615.5,286046994.2,N
1507738635.4,286046994.0,N
1507738655.2,286046994.6,N
1507738675.0,286046993.0,N
1507738675.9,286046993.0,N
1507738695.8,286046990.7,Y
1507738715.6,286046993.9,P
1507738735.4,286046993.6,P
1507738755.3,286046996.3,P
1507738775.1,286046993.6,Y
1507738795.8,286046998.1,P
1507738815.7,286046999.3,N
1507738835.5,286046997.4,N
1507738855.3,286046996.7,N
1507738875.2,286046997.6,N
1507738895.9,286046994.9,Y
1507738915.7,286046999.7,P
1507738935.6,286047002.1,N
1507738955.4,286046997.4,N
1507738975.2,286046994.9,N
1507738995.1,286046998.0,N
1507738996.0,286046998.0,N
1507739015.8,286046995.2,N
1507739035.6,286046995.8,N
1507739055.5,286046994.9,N
1507739075.3,286046995.4,N
1507739095.1,286046999.6,N
1507739115.9,286046995.5,N
1507739135.7,286046994.0,N
1507739155.5,286046993.5,N
1507739175.3,286046993.5,N
1507739195.2,286046992.4,Y
1507739215.0,286046994.9,P
1507739215.9,286046994.9,P
1507739235.8,286046995.8,P
1507739255.6,286046993.9,Y
1507739275.4,286046998.4,P
1507739295.3,286047000.5,N
1507739315.1,286047000.3,N
1507739316.0,286047000.3,N
1507739335.8,286047002.4,N
1507739355.7,286047003.9,N
1507739375.5,286047005.8,N
1507739395.3,286047003.2,N
1507739415.1,286047002.1,N
1507739435.9,286047005.9,N
1507739455.7,286047005.5,N
1507739475.5,286047006.8,N
1507739495.4,286047002.9,N
1507739515.2,286047007.4,N
1507739535.0,286047002.6,N
1507739535.9,286047002.6,N
1507739555.8,286047002.7,N
1507739575.6,286047000.3,N
1507739595.4,286047001.5,N
1507739615.3,286047002.6,N
1507739635.1,286046998.5,N
1507739636.0,286046998.5,N
1507739655.8,286047000.9,N
1507739675.6,286047000.3,N
1507739695.5,286047002.6,N
1507739715.3,286047004.0,N
1507739735.1,286047003.8,N
1507739755.9,286047002.5,N
1507739775.7,286047003.7,N
1507739795.5,286047000.5,N
1507739815.4,286046999.2,N
1507739835.2,286046995.2,N
1507739855.0,286046991.7,Y
1507739855.9,286046991.7,P
1507739875.8,286046989.9,N
1507739895.6,286046986.9,N
1507739915.4,286046984.1,N
1507739935.3,286046983.6,N
1507739955.1,286046979.9,Y
1507739975.8,286046991.5,P
1507739995.7,286046989.1,P
1507740015.5,286046987.1,P
1507740035.3,286046985.5,Y
1507740055.2,286046996.5,P
1507740075.9,286046995.4,N
1507740095.7,286046996.0,N
1507740115.6,286046993.8,N
1507740135.4,286046999.3,N
1507740155.2,286046999.6,N
1507740175.1,286046996.9,N
1507740176.0,286046996.9,N
1507740195.8,286046997.1,N
1507740215.6,286046995.7,N
1507740235.5,286046992.1,Y
1507740255.3,286046999.0,P
1507740275.1,286046996.9,N
1507740295.8,286046997.2,N
1507740315.7,286046996.5,Y
1507740335.5,286047004.2,P
1507740355.4,286047005.6,N
1507740375.2,286047004.5,N
1507740395.0,286047007.5,N
1507740395.9,286047007.5,N
1507740415.7,286047005.8,N
1507740435.6,286047008.8,N
1507740455.4,286047009.2,N
1507740475.2,286047005.8,N
1507740495.1,286047007.4,N
1507740496.0,286047007.4,N
1507740515.8,286047006.9,N
1507740535.6,286047008.6,N
1507740555.5,286047010.0,Y
1507740575.3,286047006.0,P
1507740595.1,286047003.6,P
1507740615.9,286047001.8,N
1507740635.7,286047002.9,N
1507740655.5,286047004.0,N
1507740675.4,286047001.1,N
1507740695.2,286047003.1,N
1507740715.0,286047006.6,Y
1507740715.9,286047006.6,P
1507740735.8,286047005.7,P
1507740755.6,286046997.9,N
1507740775.4,286047000.6,N
1507740795.3,286047005.0,N
1507740815.1,286047010.4,Y
1507740835.8,286047009.3,P
1507740855.7,286047011.0,P
1507740875.5,286047016.5,P
1507740895.3,286047020.1,Y
1507740915.2,286047009.5,P
1507740935.9,286047008.1,P
1507740955.7,286047009.6,P
1507740975.6,286047009.5,Y
1507740995.4,286047000.8,P
1507741015.2,286047001.5,N
1507741035.1,286047000.1,N
1507741036.0,286047000.1,N
1507741055.8,286047002.2,N
1507741075.6,286047004.0,N
1507741095.5,286047004.5,N
1507741115.3,286047009.0,Y
1507741135.1,286047005.3,P
1507741155.9,286047004.0,P
1507741175.7,286047002.2,N
1507741195.5,286047003.2,N
